Temperature
24 23 22 22 21 21 21 21 20 20 20 20 19 19 19 19 18 18 18 18 18 18 18 18 18 18 18 18 18 18 18 18 18 18 18 18 18 18 18 18 18 17 17
24 23 22 22 21 21 21 21 21 20 20 20 20 19 19 19 18 18 18 18 18 18 18 18 18 18 18 18 18 18 18 18 18 18 18 19 19 18 18 18 17 17 17
25 23 22 22 21 21 21 21 21 21 20 20 20 19 19 19 18 18 18 18 18 18 18 18 18 18 17 18 18 18 17 18 17 17 18 19 19 19 18 17 17 17 17
25 24 23 22 22 21 21 21 21 21 20 20 19 19 19 19 19 18 18 18 18 18 18 18 18 18 17 17 17 17 17 17 18 17 17 17 17 18 19 18 18 17 17
25 24 24 23 22 22 21 21 21 21 21 20 20 19 19 19 19 18 18 18 18 18 18 18 18 18 17 17 17 17 17 17 17 17 17 17 17 18 18 18 18 18 17
25 24 24 23 22 22 21 21 21 21 21 20 20 19 19 19 19 18 18 18 18 18 18 18 18 17 17 17 17 17 17 17 17 17 17 17 17 18 18 18 18 18 17
25 24 24 23 22 22 21 21 20 21 20 20 20 19 19 19 19 18 18 18 17 17 18 17 17 17 17 17 17 16 16 16 16 16 16 17 17 17 17 17 17 17 17
25 25 24 23 22 22 21 21 20 20 20 20 19 19 19 19 18 18 18 18 17 17 17 17 17 17 17 16 17 16 16 16 16 16 16 16 16 16 16 16 17 17 17
25 24 24 23 22 21 21 21 20 20 20 20 19 19 19 19 19 18 18 18 17 17 17 17 17 17 17 16 16 16 16 16 16 16 16 16 16 16 16 16 16 16 17
24 24 23 23 22 21 21 20 20 20 20 19 19 19 19 19 19 18 18 18 18 17 17 17 16 16 16 16 16 16 15 15 15 15 15 15 15 15 15 15 15 16 16
24 24 23 22 22 21 21 20 20 20 19 19 19 19 19 18 18 18 18 18 17 17 17 16 16 16 16 16 16 15 15 15 15 15 15 15 15 15 15 15 15 15 15
24 23 22 22 22 21 20 20 20 19 19 19 19 19 18 18 18 18 18 17 17 17 16 16 16 16 15 15 15 15 15 15 15 15 15 15 15 14 14 14 14 15 14
23 22 22 21 21 21 20 20 20 19 19 19 18 18 18 18 18 18 17 17 17 17 16 16 16 15 15 15 15 15 15 15 14 14 14 14 14 14 14 14 14 14 14
22 22 21 21 20 20 20 20 19 19 19 18 18 18 18 18 18 17 17 17 17 17 16 16 16 15 15 15 15 15 15 14 14 14 14 14 14 14 14 14 14 14 14
22 21 21 20 20 19 19 19 19 19 18 18 18 18 18 17 17 17 17 17 16 16 16 16 15 15 15 15 15 15 14 14 14 14 14 14 14 14 14 14 14 13 13
21 21 20 20 19 19 19 19 19 18 18 18 18 18 17 17 17 17 17 16 16 16 16 15 15 15 15 15 15 15 14 14 14 14 14 14 14 14 14 14 13 13 13
21 20 20 19 19 19 19 19 18 18 18 18 17 17 17 17 17 17 16 16 16 16 15 15 15 15 15 15 15 14 14 14 14 14 13 13 13 13 13 13 13 13 13
20 20 19 19 19 19 18 18 18 18 17 17 17 17 17 16 16 16 16 16 15 15 15 15 14 14 14 14 14 14 14 14 13 13 13 13 13 13 13 13 13 13 13
19 19 19 19 18 18 18 18 18 17 17 17 17 17 16 16 16 16 16 15 15 15 14 14 14 14 14 14 14 14 13 13 13 13 13 13 13 13 13 12 12 12 12
19 18 18 18 18 17 17 17 17 17 17 17 16 16 16 16 16 15 15 15 15 14 14 14 14 14 14 14 14 14 13 13 13 13 13 13 13 12 12 12 12 12 12
18 18 17 17 17 17 17 17 17 17 17 16 16 16 16 16 15 15 15 14 14 14 14 13 13 13 13 13 13 13 13 13 13 13 13 12 12 12 12 12 12 12 12
17 17 17 17 17 17 17 16 16 16 16 16 16 15 15 15 15 14 14 14 14 14 13 13 13 13 13 13 13 13 13 12 12 12 12 12 12 12 12 12 12 12 12
16 16 16 16 16 16 16 16 16 16 16 15 15 15 15 15 14 14 14 14 14 13 13 13 13 13 13 13 12 12 12 12 12 12 12 12 12 12 11 11 11 11 11
15 16 16 15 15 15 15 15 15 15 15 15 15 15 14 14 14 14 14 14 13 13 13 13 13 12 12 12 12 12 12 12 11 11 11 11 11 11 11 11 11 11 11
15 15 15 15 15 15 15 14 15 15 14 14 14 14 14 14 13 13 13 13 13 13 12 12 12 12 12 12 12 12 11 11 11 11 11 11 11 11 11 11 11 10 10
15 15 14 14 14 14 14 14 14 14 14 14 14 14 14 13 13 13 13 13 12 12 12 12 12 11 11 11 11 11 11 11 11 11 10 11 11 11 10 10 10 10 10
Wind_Speed
9 9 9 8 8 8 8 8 7 7 6 4 4 4 3 2 1 1 2 1 1 1 1 1 1 2 1 2 2 1 0 0 0 1 1 2 2 2 1 1 1 1 2
9 10 9 9 9 9 8 8 8 7 7 5 4 3 3 2 1 1 2 1 1 1 1 1 1 1 1 1 2 2 1 1 0 1 1 1 2 2 2 2 2 2 2
10 11 10 10 9 9 9 8 8 8 7 6 5 4 3 2 2 1 1 1 1 0 1 1 2 2 2 1 1 2 1 1 1 1 2 1 0 0 2 1 1 1 2
10 10 11 10 10 9 9 9 9 8 8 7 6 6 4 3 3 2 1 1 1 0 0 1 1 2 1 1 1 2 2 2 1 0 1 2 2 2 1 2 2 2 2
10 10 10 10 9 9 9 9 9 9 8 8 7 7 5 3 3 3 2 1 1 1 0 0 1 1 1 2 3 2 3 2 2 2 1 1 1 3 3 3 2 2 2
8 9 9 9 9 9 9 9 9 8 8 9 8 7 6 4 4 4 3 2 2 1 1 1 1 1 1 1 1 2 2 2 3 3 2 2 2 2 3 4 4 3 2
6 8 9 9 9 10 9 9 10 9 9 9 8 7 6 6 5 4 3 3 2 1 1 1 1 1 1 2 2 2 2 2 2 3 3 3 3 3 3 4 4 4 3
5 7 8 9 9 10 10 10 10 9 9 9 8 7 6 5 4 4 3 3 2 2 1 2 2 2 2 2 2 2 2 2 2 3 3 4 4 3 3 4 4 5 4
4 6 7 7 8 9 10 10 10 10 9 9 8 7 7 6 5 5 4 3 3 2 2 3 2 2 2 3 3 2 3 2 3 3 3 4 3 3 4 4 4 5 5
3 4 5 6 8 8 9 9 9 9 9 8 8 7 7 7 6 5 5 4 4 3 3 3 3 2 3 3 4 3 3 3 3 3 3 4 4 3 4 4 4 4 5
3 3 4 5 7 8 8 9 9 8 8 7 7 6 6 6 6 5 5 4 4 4 4 3 3 3 3 3 4 4 4 4 4 4 3 3 4 4 4 4 4 4 4
2 3 3 4 6 7 7 8 8 8 8 8 7 6 6 6 6 5 5 5 5 4 4 4 4 4 3 4 4 5 5 5 5 4 4 4 3 3 4 4 4 4 5
2 3 3 3 4 5 6 7 7 8 8 7 7 7 7 6 6 6 5 5 5 5 4 4 4 4 4 4 4 5 5 5 5 5 4 4 4 4 3 4 4 4 4
2 2 2 3 3 4 4 5 6 7 7 7 7 7 6 6 6 6 6 5 5 5 4 4 4 5 4 4 4 5 5 5 5 5 4 4 4 4 4 4 4 5 5
1 1 1 2 3 3 3 4 4 5 6 7 7 6 6 5 5 5 5 5 5 5 4 4 4 4 4 3 4 5 5 5 5 5 5 4 3 3 4 4 4 5 5
1 1 1 2 3 3 4 4 5 5 6 6 6 6 6 5 5 5 4 4 4 4 4 4 4 4 3 1 2 4 4 4 5 5 4 5 4 3 4 5 5 6 6
2 2 1 2 2 3 3 4 4 5 6 6 6 6 5 5 5 5 5 5 4 4 4 4 4 3 1 1 1 4 5 5 4 4 4 4 3 4 4 5 7 7 7
3 2 1 0 1 2 2 2 3 4 5 5 5 5 5 5 5 5 5 5 4 4 4 4 3 3 2 1 2 5 6 5 5 5 4 4 4 3 3 5 5 5 6
2 2 1 0 1 2 2 3 3 4 4 4 4 5 5 5 5 5 5 4 4 4 5 4 4 4 3 1 2 5 4 4 5 5 4 4 4 2 4 5 6 6 6
2 2 1 1 1 2 3 4 4 4 3 3 3 3 4 4 5 4 4 4 4 4 4 4 4 4 3 2 2 5 4 4 4 4 4 3 3 3 4 6 6 7 7
2 2 1 1 1 2 3 3 3 3 2 2 2 2 3 3 4 4 4 4 4 3 4 4 4 4 3 3 3 4 4 5 5 5 4 2 2 3 5 7 6 7 8
3 2 1 1 1 2 3 3 3 2 2 2 2 2 2 3 2 3 3 3 3 4 4 4 4 4 3 3 3 4 5 6 5 5 4 2 1 4 6 6 5 6 8
2 2 1 1 1 1 2 2 2 1 2 2 2 2 2 2 2 3 3 3 3 4 4 4 4 3 2 2 4 5 5 6 5 4 2 3 4 6 6 6 7 6 5
2 2 2 1 1 1 1 1 1 1 2 2 2 2 2 2 2 3 3 3 3 3 4 4 4 3 3 2 2 3 3 4 5 4 4 6 8 7 5 5 5 4 4
2 2 1 1 0 0 0 1 1 1 2 2 2 2 2 2 2 2 2 3 3 3 4 4 4 4 4 3 2 3 3 4 4 4 4 4 4 4 4 4 4 4 4
1 1 1 1 1 1 1 1 1 1 2 2 2 2 2 2 2 2 2 2 3 1 3 4 5 4 3 1 2 3 3 3 4 5 5 4 5 5 5 4 4 4 4
Wind_Direction
194 194 196 198 197 198 196 193 192 183 181 179 183 182 181 183 163 166 141 149 158 150 296 322 7 316 340 338 334 322 256 201 220 199 169 171 177 168 182 206 211 199 203
197 195 197 196 198 197 199 195 192 187 187 182 184 182 173 170 162 162 138 171 196 263 197 334 314 342 332 342 341 330 329 0 14 299 269 197 171 182 172 191 201 223 223
203 196 198 200 200 200 198 197 192 186 188 182 177 169 167 169 168 181 178 173 201 274 350 359 333 346 334 19 358 340 344 344 352 343 307 295 299 94 153 178 195 228 252
206 203 201 203 202 199 194 193 186 183 182 183 186 189 193 191 184 190 182 175 177 197 338 340 351 346 4 17 334 25 331 319 317 291 300 313 330 296 246 204 195 204 241
205 205 207 203 204 198 192 187 182 181 181 185 187 195 200 194 179 175 163 199 168 180 236 284 344 355 8 16 356 358 332 323 315 306 287 267 253 263 275 273 272 250 249
207 206 204 198 199 194 189 181 178 180 180 185 189 193 193 188 181 180 180 198 184 186 196 215 272 297 359 2 329 324 321 327 321 308 302 289 285 279 275 272 269 275 273
205 201 197 193 192 187 185 178 176 178 180 183 186 187 189 188 189 194 190 209 203 198 191 228 243 283 304 302 309 301 320 314 305 291 295 296 285 287 281 279 280 279 274
201 197 195 193 188 184 183 181 179 179 179 180 181 183 190 195 194 197 205 203 217 218 195 216 221 252 277 284 288 285 281 292 290 295 299 291 287 285 280 278 283 280 271
197 194 191 189 185 184 184 181 178 177 179 181 181 184 191 196 194 190 201 204 213 211 200 218 223 239 255 267 268 278 282 282 284 290 284 282 282 279 280 276 277 281 283
178 181 184 185 183 181 179 174 171 173 178 181 185 185 189 194 194 194 196 204 205 209 210 221 232 241 247 252 258 253 262 271 279 288 296 288 288 288 279 276 275 275 279
155 160 169 176 175 173 172 169 167 169 172 178 184 186 189 191 194 198 202 206 211 208 213 221 233 240 248 254 257 264 266 271 277 280 276 272 286 286 283 281 281 281 277
122 133 136 149 164 168 167 168 171 174 176 177 179 183 187 190 193 197 203 207 213 218 215 225 236 247 253 259 261 263 260 262 268 270 270 267 265 275 286 291 285 283 280
100 124 130 139 153 163 167 169 175 178 177 176 180 181 188 192 198 202 202 209 214 220 223 227 239 251 257 261 264 266 260 258 262 266 264 264 265 274 283 284 286 286 282
105 122 132 138 150 158 163 169 173 174 174 177 180 183 190 193 198 201 202 208 214 218 226 230 238 247 253 262 268 265 258 255 259 262 263 262 259 267 276 275 281 287 287
75 122 160 149 153 153 159 165 172 170 173 179 184 188 192 194 194 197 204 210 216 219 223 231 233 243 246 263 271 268 254 252 255 256 256 258 257 282 286 290 295 292 286
349 318 207 177 170 171 171 173 174 172 176 184 189 188 191 193 191 193 201 208 216 225 229 231 234 244 261 8 316 285 263 255 256 257 259 257 237 238 244 262 278 284 281
314 316 273 207 192 191 183 185 185 180 178 185 192 190 189 194 200 202 204 212 214 220 231 236 241 247 259 34 301 286 268 261 266 269 272 278 278 262 269 249 238 251 251
337 343 341 297 187 184 180 186 182 184 185 186 192 193 194 199 203 205 212 221 223 222 225 231 235 241 237 183 260 272 253 259 265 269 270 273 283 287 290 278 275 273 269
346 343 338 40 146 159 167 166 172 181 184 186 197 200 201 205 208 213 219 223 223 230 233 231 230 236 240 206 261 267 254 253 257 262 264 263 260 289 290 272 274 279 280
6 359 5 92 138 158 165 171 177 178 188 194 200 198 203 213 217 217 218 221 220 227 237 234 231 236 249 195 244 272 259 261 261 256 248 226 250 278 271 266 272 276 284
19 21 42 106 144 162 163 173 176 184 192 189 187 196 208 216 214 215 217 220 224 230 240 242 241 239 246 211 212 263 267 274 269 265 259 241 185 249 261 266 271 278 285
28 32 42 72 114 153 165 177 186 192 174 173 178 193 212 225 202 199 209 219 230 233 233 238 244 239 233 239 212 229 258 290 276 272 272 265 197 247 256 262 272 275 274
22 16 25 73 100 137 174 186 190 171 165 171 185 190 193 206 217 219 218 223 231 248 250 246 248 253 253 219 195 216 238 260 265 278 299 289 252 254 249 239 247 257 267
21 25 33 57 75 106 177 178 151 158 177 188 201 198 203 205 216 240 241 241 246 257 265 264 265 267 264 270 272 267 252 239 253 270 244 224 232 242 256 256 249 258 273
21 16 7 17 70 85 225 215 196 200 209 214 228 233 229 217 219 236 264 259 256 260 263 272 272 270 270 290 328 285 279 285 289 284 270 270 268 263 265 267 270 270 266
0 348 335 331 329 312 283 276 253 238 241 245 250 258 255 246 242 240 257 328 290 208 228 254 271 284 296 329 278 268 281 294 286 272 265 272 274 275 278 277 274 272 275
Height
1520 1522 1523 1524 1526 1527 1528 1529 1531 1532 1533 1534 1535 1536 1537 1537 1538 1538 1537 1537 1537 1538 1538 1539 1538 1537 1537 1536 1536 1535 1535 1535 1534 1534 1534 1534 1534 1534 1534 1534 1534 1534 1534
1518 1519 1521 1522 1523 1524 1526 1527 1529 1530 1532 1533 1534 1535 1536 1536 1537 1537 1536 1536 1537 1537 1537 1537 1538 1537 1537 1536 1535 1535 1535 1535 1534 1534 1534 1534 1535 1534 1533 1533 1533 1533 1533
1514 1516 1518 1520 1521 1522 1523 1525 1527 1529 1530 1531 1533 1534 1534 1535 1536 1536 1536 1536 1536 1537 1536 1536 1537 1536 1537 1536 1535 1534 1534 1535 1534 1534 1534 1534 1533 1533 1533 1532 1532 1532 1532
1511 1513 1515 1517 1519 1520 1522 1523 1525 1526 1528 1530 1531 1532 1533 1534 1535 1535 1536 1536 1536 1536 1536 1535 1535 1535 1536 1535 1535 1534 1534 1534 1534 1534 1533 1533 1533 1532 1532 1532 1532 1531 1531
1508 1510 1512 1514 1516 1518 1520 1521 1522 1524 1526 1528 1529 1531 1532 1533 1534 1535 1535 1535 1535 1535 1535 1535 1535 1534 1535 1534 1534 1533 1533 1533 1533 1533 1533 1532 1532 1532 1531 1530 1531 1530 1530
1505 1508 1510 1512 1514 1516 1518 1519 1520 1521 1524 1526 1527 1529 1530 1531 1532 1533 1533 1534 1534 1534 1534 1534 1534 1534 1534 1533 1533 1532 1532 1532 1531 1531 1531 1531 1531 1530 1530 1529 1528 1528 1528
1502 1504 1507 1509 1511 1513 1515 1516 1517 1519 1522 1524 1525 1527 1528 1529 1530 1531 1531 1532 1533 1533 1532 1533 1532 1532 1532 1531 1531 1531 1530 1530 1529 1529 1529 1529 1529 1529 1528 1528 1527 1526 1526
1500 1501 1504 1506 1508 1510 1512 1514 1515 1517 1519 1521 1523 1525 1526 1528 1529 1529 1530 1530 1531 1532 1531 1531 1530 1530 1530 1530 1529 1529 1529 1528 1527 1527 1526 1527 1527 1527 1526 1526 1525 1524 1523
1498 1499 1502 1504 1505 1507 1509 1512 1513 1515 1517 1519 1521 1522 1524 1525 1526 1527 1527 1528 1529 1529 1529 1529 1529 1528 1528 1528 1527 1527 1526 1526 1526 1526 1525 1524 1525 1524 1524 1523 1523 1523 1521
1497 1498 1500 1502 1504 1506 1507 1509 1511 1513 1515 1517 1518 1520 1521 1522 1523 1524 1525 1525 1526 1527 1527 1527 1526 1526 1526 1525 1525 1525 1524 1523 1523 1522 1522 1521 1522 1521 1521 1521 1520 1520 1519
1496 1497 1499 1500 1502 1504 1506 1507 1509 1510 1512 1514 1516 1517 1519 1520 1521 1522 1523 1523 1524 1524 1524 1524 1524 1524 1523 1523 1522 1522 1521 1520 1520 1520 1519 1519 1518 1518 1518 1518 1517 1517 1516
1496 1497 1498 1499 1501 1502 1504 1505 1506 1508 1510 1512 1513 1515 1516 1517 1518 1519 1520 1521 1521 1522 1522 1522 1522 1521 1521 1520 1519 1518 1518 1517 1517 1517 1516 1516 1516 1515 1515 1515 1515 1514 1513
1497 1497 1498 1499 1500 1501 1502 1503 1504 1506 1508 1509 1511 1512 1514 1515 1515 1516 1517 1518 1518 1519 1519 1519 1518 1518 1518 1517 1516 1515 1515 1514 1514 1514 1513 1513 1513 1513 1513 1512 1512 1511 1511
1496 1497 1498 1498 1499 1499 1500 1501 1503 1504 1506 1507 1508 1510 1511 1512 1513 1514 1514 1515 1516 1516 1516 1516 1515 1515 1514 1514 1513 1512 1512 1511 1511 1510 1510 1510 1510 1509 1509 1509 1508 1508 1507
1496 1497 1497 1497 1498 1498 1499 1500 1501 1502 1503 1505 1506 1507 1508 1509 1510 1511 1512 1513 1513 1513 1513 1513 1513 1512 1512 1510 1509 1508 1508 1508 1507 1507 1507 1507 1506 1506 1505 1506 1505 1505 1504
1496 1496 1496 1496 1496 1496 1497 1498 1499 1500 1501 1502 1504 1505 1506 1507 1508 1508 1509 1509 1510 1510 1510 1509 1509 1509 1508 1507 1505 1505 1505 1504 1504 1503 1503 1503 1502 1502 1502 1501 1501 1501 1500
1494 1494 1495 1495 1495 1495 1495 1496 1497 1498 1498 1500 1501 1502 1503 1504 1505 1505 1506 1506 1507 1507 1506 1506 1506 1505 1505 1504 1503 1502 1502 1501 1501 1500 1499 1499 1500 1499 1498 1497 1497 1497 1497
1492 1493 1493 1493 1493 1494 1494 1495 1495 1496 1497 1497 1499 1500 1500 1501 1502 1503 1503 1503 1504 1504 1503 1503 1503 1502 1501 1500 1500 1499 1499 1498 1497 1497 1496 1496 1496 1495 1495 1494 1494 1494 1493
1491 1491 1492 1492 1492 1492 1492 1493 1493 1494 1495 1495 1496 1496 1498 1499 1499 1500 1500 1500 1501 1501 1501 1500 1499 1499 1498 1497 1496 1496 1496 1495 1494 1494 1493 1493 1493 1492 1492 1491 1491 1490 1490
1490 1490 1490 1490 1490 1490 1491 1491 1492 1492 1492 1493 1494 1494 1495 1496 1497 1497 1497 1497 1497 1498 1498 1497 1497 1496 1495 1494 1494 1493 1493 1492 1492 1491 1490 1490 1489 1489 1488 1488 1487 1487 1486
1489 1489 1489 1489 1489 1489 1489 1490 1490 1490 1491 1491 1492 1492 1493 1493 1494 1494 1494 1495 1495 1495 1495 1494 1494 1493 1493 1492 1490 1490 1489 1489 1489 1488 1488 1487 1486 1485 1485 1484 1483 1482 1482
1488 1488 1488 1488 1488 1488 1488 1488 1488 1489 1489 1490 1490 1490 1491 1491 1492 1491 1491 1491 1492 1492 1491 1491 1491 1490 1490 1489 1487 1487 1486 1485 1485 1485 1484 1483 1482 1481 1481 1480 1479 1478 1478
1488 1488 1487 1487 1487 1487 1487 1487 1487 1488 1488 1488 1488 1488 1488 1488 1489 1489 1488 1488 1489 1489 1489 1488 1488 1488 1487 1486 1485 1484 1483 1482 1481 1481 1480 1479 1478 1477 1477 1476 1475 1475 1474
1487 1486 1486 1486 1485 1485 1485 1486 1486 1486 1486 1486 1486 1486 1486 1486 1486 1486 1486 1486 1486 1486 1486 1485 1485 1484 1484 1483 1482 1481 1480 1479 1479 1478 1476 1475 1474 1474 1473 1472 1472 1471 1471
1486 1486 1485 1485 1485 1484 1484 1485 1485 1484 1484 1484 1484 1484 1484 1484 1484 1484 1484 1484 1483 1483 1483 1482 1481 1481 1480 1480 1479 1478 1477 1477 1476 1474 1473 1472 1472 1471 1470 1469 1469 1468 1467
1485 1485 1484 1484 1484 1483 1483 1483 1483 1483 1482 1482 1482 1482 1482 1482 1482 1481 1481 1480 1481 1480 1479 1478 1478 1476 1476 1475 1475 1474 1473 1472 1472 1471 1470 1469 1468 1467 1467 1466 1465 1464 1464